Multibeam Report for EX1106


Ship Name: NOAA Ship OKEANOS EXPLORER (R337)
Chief Scientist: Lobecker, Elizabeth
NOAA/OAR/OER
Source Organization: National Oceanic and Atmospheric Administration (NOAA)
Start Date: 2011-09-15
End Date: 2011-09-28


View ISO Metadata

Visit the full NCEI Bathymetry Viewer


Multibeam Bathymetry

Cruise Details

Project: Exploration Mapping to Davisville
Instrument: Simrad EM302

Data Quality

Number of Files: 451
Number of Records: 1912011
BATHYMETRY DATA Quantity Percentage
Number of Beams 351500688 100%
Number of Good Beams 328954297 93.59%
Number of Zero Beams 2731 0.0%
Number of Flagged Beams 22543660 6.41%

Navigation Totals

Total Time: 300.1509 hours
Total Track Length: 5378.596 km
Average Speed: 17.92 km/hr (9.6760 knots)

Cruise Bounds

Northern Extent: 41.452896
Southern Extent: 24.087797
Western Extent: -88.527405
Eastern Extent: -70.16452

Limits

Minimum Sonar Depth 2.5029 Maximum Sonar Depth 7.0424
Minimum Altitude 0 Maximum Altitude 4022.8337
Minimum Depth 3.7726 Maximum Depth 3955.6541

File Information

Full Resolution Bathymetry as collected (raw): 195

Files File Size Description
0000_20110915_171218_EX1106_MB.all.mb58.gz 8.17MB Kongsberg multibeam vendor format
0001_20110915_190103_EX1106_MB.all.mb58.gz 437.31MB Kongsberg multibeam vendor format
0002_20110915_204021_EX1106_MB.all.mb58.gz 990.93MB Kongsberg multibeam vendor format
0003_20110916_024026_EX1106_MB.all.mb58.gz 183.68MB Kongsberg multibeam vendor format
0004_20110916_062100_EX1106_MB.all.mb58.gz 395.97MB Kongsberg multibeam vendor format
0005_20110916_122100_EX1106_MB.all.mb58.gz 345.46MB Kongsberg multibeam vendor format
0006_20110916_182104_EX1106_MB.all.mb58.gz 66.17MB Kongsberg multibeam vendor format
0007_20110916_193142_EX1106_MB.all.mb58.gz 6.13MB Kongsberg multibeam vendor format
0008_20110916_193852_EX1106_MB.all.mb58.gz 227.62MB Kongsberg multibeam vendor format
0009_20110917_000001_EX1106_MB.all.mb58.gz 422.68MB Kongsberg multibeam vendor format
0010_20110917_060002_EX1106_MB.all.mb58.gz 431.40MB Kongsberg multibeam vendor format
0011_20110917_120004_EX1106_MB.all.mb58.gz 204.10MB Kongsberg multibeam vendor format
0012_20110917_151915_EX1106_MB.all.mb58.gz 483.74MB Kongsberg multibeam vendor format
0013_20110917_211010_EX1106_MB.all.mb58.gz 821.58MB Kongsberg multibeam vendor format
0014_20110918_031012_EX1106_MB.all.mb58.gz 567.04MB Kongsberg multibeam vendor format
0015_20110918_091009_EX1106_MB.all.mb58.gz 880.23MB Kongsberg multibeam vendor format
0016_20110918_151010_EX1106_MB.all.mb58.gz 625.22MB Kongsberg multibeam vendor format
0017_20110918_211010_EX1106_MB.all.mb58.gz 683.00MB Kongsberg multibeam vendor format
0018_20110919_031008_EX1106_MB.all.mb58.gz 706.87MB Kongsberg multibeam vendor format
0019_20110919_091008_EX1106_MB.all.mb58.gz 541.54MB Kongsberg multibeam vendor format
0020_20110919_151008_EX1106_MB.all.mb58.gz 257.78MB Kongsberg multibeam vendor format
0021_20110919_180437_EX1106_MB.all.mb58.gz 538.42MB Kongsberg multibeam vendor format
0022_20110920_000435_EX1106_MB.all.mb58.gz 535.99MB Kongsberg multibeam vendor format
0023_20110920_060436_EX1106_MB.all.mb58.gz 443.12MB Kongsberg multibeam vendor format
0024_20110920_120436_EX1106_MB.all.mb58.gz 378.76MB Kongsberg multibeam vendor format
0025_20110920_180435_EX1106_MB.all.mb58.gz 483.29MB Kongsberg multibeam vendor format
0026_20110921_000438_EX1106_MB.all.mb58.gz 126.31MB Kongsberg multibeam vendor format
0027_20110921_023414_EX1106_MB.all.mb58.gz 258.79MB Kongsberg multibeam vendor format
0028_20110921_070251_EX1106_MB.all.mb58.gz 11.97MB Kongsberg multibeam vendor format
0029_20110921_071557_EX1106_MB.all.mb58.gz 4.13MB Kongsberg multibeam vendor format
0030_20110921_072029_EX1106_MB.all.mb58.gz 20.76MB Kongsberg multibeam vendor format
0031_20110921_074302_EX1106_MB.all.mb58.gz 7.98MB Kongsberg multibeam vendor format
0032_20110921_075137_EX1106_MB.all.mb58.gz 70.64MB Kongsberg multibeam vendor format
0033_20110921_090836_EX1106_MB.all.mb58.gz 16.15MB Kongsberg multibeam vendor format
0034_20110921_092546_EX1106_MB.all.mb58.gz 78.58MB Kongsberg multibeam vendor format
0035_20110921_105010_EX1106_MB.all.mb58.gz 21.51MB Kongsberg multibeam vendor format
0036_20110921_111302_EX1106_MB.all.mb58.gz 110.10MB Kongsberg multibeam vendor format
0037_20110921_130717_EX1106_MB.all.mb58.gz 13.09MB Kongsberg multibeam vendor format
0038_20110921_131954_EX1106_MB.all.mb58.gz 108.43MB Kongsberg multibeam vendor format
0039_20110921_150635_EX1106_MB.all.mb58.gz 33.98MB Kongsberg multibeam vendor format
0040_20110921_152942_EX1106_MB.all.mb58.gz 110.87MB Kongsberg multibeam vendor format
0041_20110921_165152_EX1106_MB.all.mb58.gz 16.14MB Kongsberg multibeam vendor format
0042_20110921_170248_EX1106_MB.all.mb58.gz 106.57MB Kongsberg multibeam vendor format
0043_20110921_180956_EX1106_MB.all.mb58.gz 27.88MB Kongsberg multibeam vendor format
0044_20110921_182506_EX1106_MB.all.mb58.gz 108.54MB Kongsberg multibeam vendor format
0045_20110921_192206_EX1106_MB.all.mb58.gz 26.17MB Kongsberg multibeam vendor format
0046_20110921_193537_EX1106_MB.all.mb58.gz 75.20MB Kongsberg multibeam vendor format
0047_20110921_201248_EX1106_MB.all.mb58.gz 31.08MB Kongsberg multibeam vendor format
0048_20110921_202625_EX1106_MB.all.mb58.gz 65.80MB Kongsberg multibeam vendor format
0049_20110921_205649_EX1106_MB.all.mb58.gz 19.46MB Kongsberg multibeam vendor format
0050_20110921_210538_EX1106_MB.all.mb58.gz 43.24MB Kongsberg multibeam vendor format
0051_20110921_212439_EX1106_MB.all.mb58.gz 15.83MB Kongsberg multibeam vendor format
0052_20110921_213050_EX1106_MB.all.mb58.gz 46.68MB Kongsberg multibeam vendor format
0053_20110921_214938_EX1106_MB.all.mb58.gz 11.35MB Kongsberg multibeam vendor format
0054_20110921_215400_EX1106_MB.all.mb58.gz 33.15MB Kongsberg multibeam vendor format
0055_20110921_220659_EX1106_MB.all.mb58.gz 177.80MB Kongsberg multibeam vendor format
0056_20110921_235930_EX1106_MB.all.mb58.gz 92.30MB Kongsberg multibeam vendor format
0057_20110922_011326_EX1106_MB.all.mb58.gz 20.22MB Kongsberg multibeam vendor format
0058_20110922_012610_EX1106_MB.all.mb58.gz 113.85MB Kongsberg multibeam vendor format
0059_20110922_024312_EX1106_MB.all.mb58.gz 12.77MB Kongsberg multibeam vendor format
0060_20110922_025129_EX1106_MB.all.mb58.gz 116.11MB Kongsberg multibeam vendor format
0061_20110922_040233_EX1106_MB.all.mb58.gz 24.94MB Kongsberg multibeam vendor format
0062_20110922_041448_EX1106_MB.all.mb58.gz 138.34MB Kongsberg multibeam vendor format
0063_20110922_053140_EX1106_MB.all.mb58.gz 17.88MB Kongsberg multibeam vendor format
0064_20110922_054117_EX1106_MB.all.mb58.gz 134.02MB Kongsberg multibeam vendor format
0065_20110922_065155_EX1106_MB.all.mb58.gz 48.15MB Kongsberg multibeam vendor format
0066_20110922_071331_EX1106_MB.all.mb58.gz 119.37MB Kongsberg multibeam vendor format
0067_20110922_081218_EX1106_MB.all.mb58.gz 11.56MB Kongsberg multibeam vendor format
0068_20110922_081759_EX1106_MB.all.mb58.gz 219.84MB Kongsberg multibeam vendor format
0069_20110922_100111_EX1106_MB.all.mb58.gz 5.02MB Kongsberg multibeam vendor format
0070_20110922_100431_EX1106_MB.all.mb58.gz 232.53MB Kongsberg multibeam vendor format
0071_20110922_122410_EX1106_MB.all.mb58.gz 185.34MB Kongsberg multibeam vendor format
0072_20110922_150219_EX1106_MB.all.mb58.gz 88.55MB Kongsberg multibeam vendor format
0073_20110922_163828_EX1106_MB.all.mb58.gz 24.02MB Kongsberg multibeam vendor format
0074_20110922_170343_EX1106_MB.all.mb58.gz 75.12MB Kongsberg multibeam vendor format
0075_20110922_182319_EX1106_MB.all.mb58.gz 38.48MB Kongsberg multibeam vendor format
0076_20110922_190452_EX1106_MB.all.mb58.gz 92.89MB Kongsberg multibeam vendor format
0077_20110922_204721_EX1106_MB.all.mb58.gz 19.78MB Kongsberg multibeam vendor format
0078_20110922_210910_EX1106_MB.all.mb58.gz 79.25MB Kongsberg multibeam vendor format
0079_20110922_223709_EX1106_MB.all.mb58.gz 68.04MB Kongsberg multibeam vendor format
0080_20110922_235358_EX1106_MB.all.mb58.gz 36.71MB Kongsberg multibeam vendor format
0081_20110923_003542_EX1106_MB.all.mb58.gz 11.37MB Kongsberg multibeam vendor format
0082_20110923_004832_EX1106_MB.all.mb58.gz 41.38MB Kongsberg multibeam vendor format
0083_20110923_013552_EX1106_MB.all.mb58.gz 9.22MB Kongsberg multibeam vendor format
0084_20110923_014614_EX1106_MB.all.mb58.gz 36.91MB Kongsberg multibeam vendor format
0085_20110923_022812_EX1106_MB.all.mb58.gz 11.14MB Kongsberg multibeam vendor format
0086_20110923_024050_EX1106_MB.all.mb58.gz 41.80MB Kongsberg multibeam vendor format
0087_20110923_032844_EX1106_MB.all.mb58.gz 8.09MB Kongsberg multibeam vendor format
0088_20110923_033749_EX1106_MB.all.mb58.gz 35.58MB Kongsberg multibeam vendor format
0089_20110923_041826_EX1106_MB.all.mb58.gz 14.70MB Kongsberg multibeam vendor format
0090_20110923_043517_EX1106_MB.all.mb58.gz 37.75MB Kongsberg multibeam vendor format
0091_20110923_051737_EX1106_MB.all.mb58.gz 19.65MB Kongsberg multibeam vendor format
0092_20110923_053929_EX1106_MB.all.mb58.gz 55.21MB Kongsberg multibeam vendor format
0093_20110923_063948_EX1106_MB.all.mb58.gz 174.28MB Kongsberg multibeam vendor format
0094_20110923_094630_EX1106_MB.all.mb58.gz 5.10MB Kongsberg multibeam vendor format
0095_20110923_095046_EX1106_MB.all.mb58.gz 79.57MB Kongsberg multibeam vendor format
0096_20110923_104742_EX1106_MB.all.mb58.gz 15.22MB Kongsberg multibeam vendor format
0097_20110923_105738_EX1106_MB.all.mb58.gz 61.04MB Kongsberg multibeam vendor format
0098_20110923_113300_EX1106_MB.all.mb58.gz 9.77MB Kongsberg multibeam vendor format
0099_20110923_113933_EX1106_MB.all.mb58.gz 79.38MB Kongsberg multibeam vendor format
0100_20110923_121509_EX1106_MB.all.mb58.gz 17.01MB Kongsberg multibeam vendor format
0101_20110923_122234_EX1106_MB.all.mb58.gz 165.95MB Kongsberg multibeam vendor format
0102_20110923_132834_EX1106_MB.all.mb58.gz 21.39MB Kongsberg multibeam vendor format
0103_20110923_133818_EX1106_MB.all.mb58.gz 90.14MB Kongsberg multibeam vendor format
0104_20110923_141113_EX1106_MB.all.mb58.gz 12.30MB Kongsberg multibeam vendor format
0105_20110923_141523_EX1106_MB.all.mb58.gz 97.27MB Kongsberg multibeam vendor format
0106_20110923_144600_EX1106_MB.all.mb58.gz 29.45MB Kongsberg multibeam vendor format
0107_20110923_145153_EX1106_MB.all.mb58.gz 53.45MB Kongsberg multibeam vendor format
0108_20110923_150324_EX1106_MB.all.mb58.gz 334.15MB Kongsberg multibeam vendor format
0109_20110923_162521_EX1106_MB.all.mb58.gz 556.77MB Kongsberg multibeam vendor format
0110_20110923_222523_EX1106_MB.all.mb58.gz 123.95MB Kongsberg multibeam vendor format
0111_20110923_234239_EX1106_MB.all.mb58.gz 417.57MB Kongsberg multibeam vendor format
0112_20110924_054240_EX1106_MB.all.mb58.gz 54.77MB Kongsberg multibeam vendor format
0113_20110924_064245_EX1106_MB.all.mb58.gz 2.55MB Kongsberg multibeam vendor format
0114_20110924_064532_EX1106_MB.all.mb58.gz 37.19MB Kongsberg multibeam vendor format
0115_20110924_072621_EX1106_MB.all.mb58.gz 11.58MB Kongsberg multibeam vendor format
0116_20110924_073919_EX1106_MB.all.mb58.gz 38.40MB Kongsberg multibeam vendor format
0117_20110924_082158_EX1106_MB.all.mb58.gz 9.08MB Kongsberg multibeam vendor format
0118_20110924_083154_EX1106_MB.all.mb58.gz 40.19MB Kongsberg multibeam vendor format
0119_20110924_091532_EX1106_MB.all.mb58.gz 10.73MB Kongsberg multibeam vendor format
0120_20110924_092704_EX1106_MB.all.mb58.gz 46.49MB Kongsberg multibeam vendor format
0121_20110924_101817_EX1106_MB.all.mb58.gz 9.62MB Kongsberg multibeam vendor format
0122_20110924_102930_EX1106_MB.all.mb58.gz 39.62MB Kongsberg multibeam vendor format
0123_20110924_111257_EX1106_MB.all.mb58.gz 10.25MB Kongsberg multibeam vendor format
0124_20110924_112420_EX1106_MB.all.mb58.gz 47.40MB Kongsberg multibeam vendor format
0125_20110924_121622_EX1106_MB.all.mb58.gz 15.89MB Kongsberg multibeam vendor format
0126_20110924_123358_EX1106_MB.all.mb58.gz 24.36MB Kongsberg multibeam vendor format
0127_20110924_130103_EX1106_MB.all.mb58.gz 34.81MB Kongsberg multibeam vendor format
0128_20110924_133912_EX1106_MB.all.mb58.gz 252.77MB Kongsberg multibeam vendor format
0129_20110924_180759_EX1106_MB.all.mb58.gz 74.13MB Kongsberg multibeam vendor format
0130_20110924_185833_EX1106_MB.all.mb58.gz 68.66MB Kongsberg multibeam vendor format
0131_20110924_193911_EX1106_MB.all.mb58.gz 25.73MB Kongsberg multibeam vendor format
0132_20110924_195352_EX1106_MB.all.mb58.gz 460.64MB Kongsberg multibeam vendor format
0133_20110925_015350_EX1106_MB.all.mb58.gz 53.02MB Kongsberg multibeam vendor format
0134_20110925_024615_EX1106_MB.all.mb58.gz 200.08MB Kongsberg multibeam vendor format
0135_20110925_061003_EX1106_MB.all.mb58.gz 16.06MB Kongsberg multibeam vendor format
0136_20110925_062633_EX1106_MB.all.mb58.gz 190.65MB Kongsberg multibeam vendor format
0137_20110925_094101_EX1106_MB.all.mb58.gz 19.03MB Kongsberg multibeam vendor format
0138_20110925_100100_EX1106_MB.all.mb58.gz 180.53MB Kongsberg multibeam vendor format
0139_20110925_131119_EX1106_MB.all.mb58.gz 19.98MB Kongsberg multibeam vendor format
0140_20110925_133245_EX1106_MB.all.mb58.gz 163.05MB Kongsberg multibeam vendor format
0141_20110925_162615_EX1106_MB.all.mb58.gz 57.52MB Kongsberg multibeam vendor format
0142_20110925_172630_EX1106_MB.all.mb58.gz 25.02MB Kongsberg multibeam vendor format
0143_20110925_175136_EX1106_MB.all.mb58.gz 35.16MB Kongsberg multibeam vendor format
0144_20110925_181922_EX1106_MB.all.mb58.gz 17.26MB Kongsberg multibeam vendor format
0145_20110925_183533_EX1106_MB.all.mb58.gz 53.39MB Kongsberg multibeam vendor format
0146_20110925_191529_EX1106_MB.all.mb58.gz 10.86MB Kongsberg multibeam vendor format
0148_20110925_202142_EX1106_MB.all.mb58.gz 30.77MB Kongsberg multibeam vendor format
0149_20110925_205152_EX1106_MB.all.mb58.gz 9.17MB Kongsberg multibeam vendor format
0150_20110925_210103_EX1106_MB.all.mb58.gz 97.03MB Kongsberg multibeam vendor format
0151_20110925_222256_EX1106_MB.all.mb58.gz 11.56MB Kongsberg multibeam vendor format
0152_20110925_223425_EX1106_MB.all.mb58.gz 254.51MB Kongsberg multibeam vendor format
0153_20110926_023341_EX1106_MB.all.mb58.gz 9.05MB Kongsberg multibeam vendor format
0154_20110926_023948_EX1106_MB.all.mb58.gz 64.57MB Kongsberg multibeam vendor format
0155_20110926_034629_EX1106_MB.all.mb58.gz 1.84MB Kongsberg multibeam vendor format
0156_20110926_034828_EX1106_MB.all.mb58.gz 163.71MB Kongsberg multibeam vendor format
0157_20110926_064333_EX1106_MB.all.mb58.gz 23.26MB Kongsberg multibeam vendor format
0158_20110926_070812_EX1106_MB.all.mb58.gz 121.71MB Kongsberg multibeam vendor format
0159_20110926_092046_EX1106_MB.all.mb58.gz 3.69MB Kongsberg multibeam vendor format
0160_20110926_092442_EX1106_MB.all.mb58.gz 81.78MB Kongsberg multibeam vendor format
0161_20110926_104703_EX1106_MB.all.mb58.gz 2.80MB Kongsberg multibeam vendor format
0162_20110926_104948_EX1106_MB.all.mb58.gz 48.83MB Kongsberg multibeam vendor format
0163_20110926_113335_EX1106_MB.all.mb58.gz 16.42MB Kongsberg multibeam vendor format
0164_20110926_114749_EX1106_MB.all.mb58.gz 71.96MB Kongsberg multibeam vendor format
0165_20110926_124113_EX1106_MB.all.mb58.gz 16.88MB Kongsberg multibeam vendor format
0166_20110926_125148_EX1106_MB.all.mb58.gz 97.25MB Kongsberg multibeam vendor format
0167_20110926_135109_EX1106_MB.all.mb58.gz 19.78MB Kongsberg multibeam vendor format
0168_20110926_140313_EX1106_MB.all.mb58.gz 38.58MB Kongsberg multibeam vendor format
0169_20110926_142244_EX1106_MB.all.mb58.gz 49.48MB Kongsberg multibeam vendor format
0170_20110926_144350_EX1106_MB.all.mb58.gz 65.50MB Kongsberg multibeam vendor format
0171_20110926_151641_EX1106_MB.all.mb58.gz 133.23MB Kongsberg multibeam vendor format
0172_20110926_160356_EX1106_MB.all.mb58.gz 131.53MB Kongsberg multibeam vendor format
0173_20110926_170240_EX1106_MB.all.mb58.gz 52.21MB Kongsberg multibeam vendor format
0174_20110926_173316_EX1106_MB.all.mb58.gz 31.30MB Kongsberg multibeam vendor format
0175_20110926_175522_EX1106_MB.all.mb58.gz 83.48MB Kongsberg multibeam vendor format
0176_20110926_183434_EX1106_MB.all.mb58.gz 49.45MB Kongsberg multibeam vendor format
0177_20110926_190331_EX1106_MB.all.mb58.gz 55.54MB Kongsberg multibeam vendor format
0178_20110926_194128_EX1106_MB.all.mb58.gz 131.10MB Kongsberg multibeam vendor format
0179_20110926_205018_EX1106_MB.all.mb58.gz 327.42MB Kongsberg multibeam vendor format
0180_20110926_233307_EX1106_MB.all.mb58.gz 718.40MB Kongsberg multibeam vendor format
0181_20110927_053308_EX1106_MB.all.mb58.gz 426.15MB Kongsberg multibeam vendor format
0182_20110927_093219_EX1106_MB.all.mb58.gz 419.93MB Kongsberg multibeam vendor format
0183_20110927_132145_EX1106_MB.all.mb58.gz 73.59MB Kongsberg multibeam vendor format
0184_20110927_135524_EX1106_MB.all.mb58.gz 18.51MB Kongsberg multibeam vendor format
0185_20110927_140143_EX1106_MB.all.mb58.gz 97.80MB Kongsberg multibeam vendor format
0186_20110927_144621_EX1106_MB.all.mb58.gz 459.94MB Kongsberg multibeam vendor format
0187_20110927_203332_EX1106_MB.all.mb58.gz 18.74MB Kongsberg multibeam vendor format
0188_20110927_205253_EX1106_MB.all.mb58.gz 42.13MB Kongsberg multibeam vendor format
0189_20110927_213415_EX1106_MB.all.mb58.gz 17.17MB Kongsberg multibeam vendor format
0190_20110927_214808_EX1106_MB.all.mb58.gz 57.73MB Kongsberg multibeam vendor format
0191_20110927_223406_EX1106_MB.all.mb58.gz 16.60MB Kongsberg multibeam vendor format
0192_20110927_224515_EX1106_MB.all.mb58.gz 137.70MB Kongsberg multibeam vendor format
0193_20110928_001504_EX1106_MB.all.mb58.gz 1482.98MB Kongsberg multibeam vendor format
0194_20110928_061504_EX1106_MB.all.mb58.gz 1331.63MB Kongsberg multibeam vendor format
0195_20110928_102736_EX1106_MB.all.mb58.gz 659.73MB Kongsberg multibeam vendor format

Full Resolution Bathymetry (processed): 194

Files File Size Description
EX1106_EXApril09_2011-258_0001_20110915_190103_EX1106_MB.txt.mb162 99.25MB Generic XYZ sounding format
EX1106_EXApril09_2011-258_0002_20110915_204021_EX1106_MB.txt.mb162 171.41MB Generic XYZ sounding format
EX1106_EXApril09_2011-259_0003_20110916_024026_EX1106_MB.txt.mb162 8.22MB Generic XYZ sounding format
EX1106_EXApril09_2011-259_0004_20110916_062100_EX1106_MB.txt.mb162 38.40MB Generic XYZ sounding format
EX1106_EXApril09_2011-259_0005_20110916_122100_EX1106_MB.txt.mb162 33.02MB Generic XYZ sounding format
EX1106_EXApril09_2011-259_0006_20110916_182104_EX1106_MB.txt.mb162 5.45MB Generic XYZ sounding format
EX1106_EXApril09_2011-259_0007_20110916_193142_EX1106_MB.txt.mb162 480.3KB Generic XYZ sounding format
EX1106_EXApril09_2011-259_0008_20110916_193852_EX1106_MB.txt.mb162 18.66MB Generic XYZ sounding format
EX1106_EXApril09_2011-260_0009_20110917_000001_EX1106_MB.txt.mb162 39.15MB Generic XYZ sounding format
EX1106_EXApril09_2011-260_0010_20110917_060002_EX1106_MB.txt.mb162 41.35MB Generic XYZ sounding format
EX1106_EXApril09_2011-260_0011_20110917_120004_EX1106_MB.txt.mb162 19.39MB Generic XYZ sounding format
EX1106_EXApril09_2011-260_0012_20110917_151915_EX1106_MB.txt.mb162 88.97MB Generic XYZ sounding format
EX1106_EXApril09_2011-260_0013_20110917_211010_EX1106_MB.txt.mb162 119.10MB Generic XYZ sounding format
EX1106_EXApril09_2011-261_0014_20110918_031012_EX1106_MB.txt.mb162 59.02MB Generic XYZ sounding format
EX1106_EXApril09_2011-261_0015_20110918_091009_EX1106_MB.txt.mb162 137.56MB Generic XYZ sounding format
EX1106_EXApril09_2011-261_0016_20110918_151010_EX1106_MB.txt.mb162 66.74MB Generic XYZ sounding format
EX1106_EXApril09_2011-261_0017_20110918_211010_EX1106_MB.txt.mb162 77.00MB Generic XYZ sounding format
EX1106_EXApril09_2011-262_0018_20110919_031008_EX1106_MB.txt.mb162 89.63MB Generic XYZ sounding format
EX1106_EXApril09_2011-262_0019_20110919_091008_EX1106_MB.txt.mb162 47.39MB Generic XYZ sounding format
EX1106_EXApril09_2011-262_0020_20110919_151008_EX1106_MB.txt.mb162 23.32MB Generic XYZ sounding format
EX1106_EXApril09_2011-262_0021_20110919_180437_EX1106_MB.txt.mb162 48.75MB Generic XYZ sounding format
EX1106_EXApril09_2011-263_0022_20110920_000435_EX1106_MB.txt.mb162 47.13MB Generic XYZ sounding format
EX1106_EXApril09_2011-263_0023_20110920_060436_EX1106_MB.txt.mb162 40.11MB Generic XYZ sounding format
EX1106_EXApril09_2011-263_0024_20110920_120436_EX1106_MB.txt.mb162 37.57MB Generic XYZ sounding format
EX1106_EXApril09_2011-263_0025_20110920_180435_EX1106_MB.txt.mb162 42.64MB Generic XYZ sounding format
EX1106_EXApril09_2011-264_0026_20110921_000438_EX1106_MB.txt.mb162 11.44MB Generic XYZ sounding format
EX1106_EXApril09_2011-264_0027_20110921_023414_EX1106_MB.txt.mb162 20.91MB Generic XYZ sounding format
EX1106_EXApril09_2011-264_0028_20110921_070251_EX1106_MB.txt.mb162 0.72MB Generic XYZ sounding format
EX1106_EXApril09_2011-264_0029_20110921_071557_EX1106_MB.txt.mb162 252.8KB Generic XYZ sounding format
EX1106_EXApril09_2011-264_0030_20110921_072029_EX1106_MB.txt.mb162 1.53MB Generic XYZ sounding format
EX1106_EXApril09_2011-264_0031_20110921_074302_EX1106_MB.txt.mb162 0.62MB Generic XYZ sounding format
EX1106_EXApril09_2011-264_0032_20110921_075137_EX1106_MB.txt.mb162 5.45MB Generic XYZ sounding format
EX1106_EXApril09_2011-264_0033_20110921_090836_EX1106_MB.txt.mb162 1.24MB Generic XYZ sounding format
EX1106_EXApril09_2011-264_0034_20110921_092546_EX1106_MB.txt.mb162 6.12MB Generic XYZ sounding format
EX1106_EXApril09_2011-264_0035_20110921_105010_EX1106_MB.txt.mb162 1.61MB Generic XYZ sounding format
EX1106_EXApril09_2011-264_0036_20110921_111302_EX1106_MB.txt.mb162 9.92MB Generic XYZ sounding format
EX1106_EXApril09_2011-264_0037_20110921_130717_EX1106_MB.txt.mb162 1.24MB Generic XYZ sounding format
EX1106_EXApril09_2011-264_0038_20110921_131954_EX1106_MB.txt.mb162 10.19MB Generic XYZ sounding format
EX1106_EXApril09_2011-264_0039_20110921_150635_EX1106_MB.txt.mb162 3.38MB Generic XYZ sounding format
EX1106_EXApril09_2011-264_0040_20110921_152942_EX1106_MB.txt.mb162 10.39MB Generic XYZ sounding format
EX1106_EXApril09_2011-264_0041_20110921_165152_EX1106_MB.txt.mb162 1.50MB Generic XYZ sounding format
EX1106_EXApril09_2011-264_0042_20110921_170248_EX1106_MB.txt.mb162 10.48MB Generic XYZ sounding format
EX1106_EXApril09_2011-264_0043_20110921_180956_EX1106_MB.txt.mb162 3.34MB Generic XYZ sounding format
EX1106_EXApril09_2011-264_0044_20110921_182506_EX1106_MB.txt.mb162 12.96MB Generic XYZ sounding format
EX1106_EXApril09_2011-264_0045_20110921_192206_EX1106_MB.txt.mb162 3.17MB Generic XYZ sounding format
EX1106_EXApril09_2011-264_0046_20110921_193537_EX1106_MB.txt.mb162 9.96MB Generic XYZ sounding format
EX1106_EXApril09_2011-264_0047_20110921_201248_EX1106_MB.txt.mb162 4.57MB Generic XYZ sounding format
EX1106_EXApril09_2011-264_0048_20110921_202625_EX1106_MB.txt.mb162 9.34MB Generic XYZ sounding format
EX1106_EXApril09_2011-264_0049_20110921_205649_EX1106_MB.txt.mb162 2.80MB Generic XYZ sounding format
EX1106_EXApril09_2011-264_0050_20110921_210538_EX1106_MB.txt.mb162 6.28MB Generic XYZ sounding format
EX1106_EXApril09_2011-264_0051_20110921_212439_EX1106_MB.txt.mb162 2.41MB Generic XYZ sounding format
EX1106_EXApril09_2011-264_0052_20110921_213050_EX1106_MB.txt.mb162 7.51MB Generic XYZ sounding format
EX1106_EXApril09_2011-264_0053_20110921_214938_EX1106_MB.txt.mb162 1.85MB Generic XYZ sounding format
EX1106_EXApril09_2011-264_0054_20110921_215400_EX1106_MB.txt.mb162 5.47MB Generic XYZ sounding format
EX1106_EXApril09_2011-264_0055_20110921_220659_EX1106_MB.txt.mb162 20.87MB Generic XYZ sounding format
EX1106_EXApril09_2011-265_0056_20110921_235930_EX1106_MB.txt.mb162 7.56MB Generic XYZ sounding format
EX1106_EXApril09_2011-265_0057_20110922_011326_EX1106_MB.txt.mb162 1.80MB Generic XYZ sounding format
EX1106_EXApril09_2011-265_0058_20110922_012610_EX1106_MB.txt.mb162 10.67MB Generic XYZ sounding format
EX1106_EXApril09_2011-265_0059_20110922_024312_EX1106_MB.txt.mb162 1.26MB Generic XYZ sounding format
EX1106_EXApril09_2011-265_0060_20110922_025129_EX1106_MB.txt.mb162 12.24MB Generic XYZ sounding format
EX1106_EXApril09_2011-265_0061_20110922_040233_EX1106_MB.txt.mb162 3.25MB Generic XYZ sounding format
EX1106_EXApril09_2011-265_0062_20110922_041448_EX1106_MB.txt.mb162 16.24MB Generic XYZ sounding format
EX1106_EXApril09_2011-265_0063_20110922_053140_EX1106_MB.txt.mb162 2.06MB Generic XYZ sounding format
EX1106_EXApril09_2011-265_0064_20110922_054117_EX1106_MB.txt.mb162 13.81MB Generic XYZ sounding format
EX1106_EXApril09_2011-265_0065_20110922_065155_EX1106_MB.txt.mb162 6.06MB Generic XYZ sounding format
EX1106_EXApril09_2011-265_0066_20110922_071331_EX1106_MB.txt.mb162 15.12MB Generic XYZ sounding format
EX1106_EXApril09_2011-265_0067_20110922_081218_EX1106_MB.txt.mb162 1.47MB Generic XYZ sounding format
EX1106_EXApril09_2011-265_0068_20110922_081759_EX1106_MB.txt.mb162 30.89MB Generic XYZ sounding format
EX1106_EXApril09_2011-265_0069_20110922_100111_EX1106_MB.txt.mb162 459.0KB Generic XYZ sounding format
EX1106_EXApril09_2011-265_0070_20110922_100431_EX1106_MB.txt.mb162 25.60MB Generic XYZ sounding format
EX1106_EXApril09_2011-265_0071_20110922_122410_EX1106_MB.txt.mb162 17.53MB Generic XYZ sounding format
EX1106_EXApril09_2011-265_0072_20110922_150219_EX1106_MB.txt.mb162 7.03MB Generic XYZ sounding format
EX1106_EXApril09_2011-265_0073_20110922_163828_EX1106_MB.txt.mb162 2.01MB Generic XYZ sounding format
EX1106_EXApril09_2011-265_0074_20110922_170343_EX1106_MB.txt.mb162 6.00MB Generic XYZ sounding format
EX1106_EXApril09_2011-265_0075_20110922_182319_EX1106_MB.txt.mb162 2.98MB Generic XYZ sounding format
EX1106_EXApril09_2011-265_0076_20110922_190452_EX1106_MB.txt.mb162 7.03MB Generic XYZ sounding format
EX1106_EXApril09_2011-265_0077_20110922_204721_EX1106_MB.txt.mb162 1.48MB Generic XYZ sounding format
EX1106_EXApril09_2011-265_0078_20110922_210910_EX1106_MB.txt.mb162 5.72MB Generic XYZ sounding format
EX1106_EXApril09_2011-265_0079_20110922_223709_EX1106_MB.txt.mb162 4.67MB Generic XYZ sounding format
EX1106_EXApril09_2011-266_0080_20110922_235358_EX1106_MB.txt.mb162 2.21MB Generic XYZ sounding format
EX1106_EXApril09_2011-266_0081_20110923_003542_EX1106_MB.txt.mb162 0.76MB Generic XYZ sounding format
EX1106_EXApril09_2011-266_0082_20110923_004832_EX1106_MB.txt.mb162 2.45MB Generic XYZ sounding format
EX1106_EXApril09_2011-266_0083_20110923_013552_EX1106_MB.txt.mb162 503.0KB Generic XYZ sounding format
EX1106_EXApril09_2011-266_0084_20110923_014614_EX1106_MB.txt.mb162 2.02MB Generic XYZ sounding format
EX1106_EXApril09_2011-266_0085_20110923_022812_EX1106_MB.txt.mb162 0.71MB Generic XYZ sounding format
EX1106_EXApril09_2011-266_0086_20110923_024050_EX1106_MB.txt.mb162 2.80MB Generic XYZ sounding format
EX1106_EXApril09_2011-266_0087_20110923_032844_EX1106_MB.txt.mb162 0.54MB Generic XYZ sounding format
EX1106_EXApril09_2011-266_0088_20110923_033749_EX1106_MB.txt.mb162 2.39MB Generic XYZ sounding format
EX1106_EXApril09_2011-266_0089_20110923_041826_EX1106_MB.txt.mb162 0.97MB Generic XYZ sounding format
EX1106_EXApril09_2011-266_0090_20110923_043517_EX1106_MB.txt.mb162 2.86MB Generic XYZ sounding format
EX1106_EXApril09_2011-266_0091_20110923_051737_EX1106_MB.txt.mb162 1.49MB Generic XYZ sounding format
EX1106_EXApril09_2011-266_0092_20110923_053929_EX1106_MB.txt.mb162 5.19MB Generic XYZ sounding format
EX1106_EXApril09_2011-266_0093_20110923_063948_EX1106_MB.txt.mb162 14.35MB Generic XYZ sounding format
EX1106_EXApril09_2011-266_0094_20110923_094630_EX1106_MB.txt.mb162 465.3KB Generic XYZ sounding format
EX1106_EXApril09_2011-266_0095_20110923_095046_EX1106_MB.txt.mb162 7.40MB Generic XYZ sounding format
EX1106_EXApril09_2011-266_0096_20110923_104742_EX1106_MB.txt.mb162 1.34MB Generic XYZ sounding format
EX1106_EXApril09_2011-266_0097_20110923_105738_EX1106_MB.txt.mb162 6.36MB Generic XYZ sounding format
EX1106_EXApril09_2011-266_0098_20110923_113300_EX1106_MB.txt.mb162 0.85MB Generic XYZ sounding format
EX1106_EXApril09_2011-266_0099_20110923_113933_EX1106_MB.txt.mb162 11.46MB Generic XYZ sounding format
EX1106_EXApril09_2011-266_0100_20110923_121509_EX1106_MB.txt.mb162 2.48MB Generic XYZ sounding format
EX1106_EXApril09_2011-266_0101_20110923_122234_EX1106_MB.txt.mb162 24.18MB Generic XYZ sounding format
EX1106_EXApril09_2011-266_0102_20110923_132834_EX1106_MB.txt.mb162 3.04MB Generic XYZ sounding format
EX1106_EXApril09_2011-266_0103_20110923_133818_EX1106_MB.txt.mb162 15.31MB Generic XYZ sounding format
EX1106_EXApril09_2011-266_0104_20110923_141113_EX1106_MB.txt.mb162 2.25MB Generic XYZ sounding format
EX1106_EXApril09_2011-266_0105_20110923_141523_EX1106_MB.txt.mb162 18.33MB Generic XYZ sounding format
EX1106_EXApril09_2011-266_0106_20110923_144600_EX1106_MB.txt.mb162 6.11MB Generic XYZ sounding format
EX1106_EXApril09_2011-266_0107_20110923_145153_EX1106_MB.txt.mb162 10.90MB Generic XYZ sounding format
EX1106_EXApril09_2011-266_0108_20110923_150324_EX1106_MB.txt.mb162 67.84MB Generic XYZ sounding format
EX1106_EXApril09_2011-266_0109_20110923_162521_EX1106_MB.txt.mb162 58.31MB Generic XYZ sounding format
EX1106_EXApril09_2011-266_0110_20110923_222523_EX1106_MB.txt.mb162 12.89MB Generic XYZ sounding format
EX1106_EXApril09_2011-266_0111_20110923_234239_EX1106_MB.txt.mb162 36.05MB Generic XYZ sounding format
EX1106_EXApril09_2011-267_0112_20110924_054240_EX1106_MB.txt.mb162 3.91MB Generic XYZ sounding format
EX1106_EXApril09_2011-267_0113_20110924_064245_EX1106_MB.txt.mb162 188.7KB Generic XYZ sounding format
EX1106_EXApril09_2011-267_0114_20110924_064532_EX1106_MB.txt.mb162 2.84MB Generic XYZ sounding format
EX1106_EXApril09_2011-267_0115_20110924_072621_EX1106_MB.txt.mb162 0.70MB Generic XYZ sounding format
EX1106_EXApril09_2011-267_0116_20110924_073919_EX1106_MB.txt.mb162 2.54MB Generic XYZ sounding format
EX1106_EXApril09_2011-267_0117_20110924_082158_EX1106_MB.txt.mb162 0.61MB Generic XYZ sounding format
EX1106_EXApril09_2011-267_0118_20110924_083154_EX1106_MB.txt.mb162 3.56MB Generic XYZ sounding format
EX1106_EXApril09_2011-267_0119_20110924_091532_EX1106_MB.txt.mb162 0.78MB Generic XYZ sounding format
EX1106_EXApril09_2011-267_0120_20110924_092704_EX1106_MB.txt.mb162 3.10MB Generic XYZ sounding format
EX1106_EXApril09_2011-267_0121_20110924_101817_EX1106_MB.txt.mb162 0.50MB Generic XYZ sounding format
EX1106_EXApril09_2011-267_0122_20110924_102930_EX1106_MB.txt.mb162 2.81MB Generic XYZ sounding format
EX1106_EXApril09_2011-267_0123_20110924_111257_EX1106_MB.txt.mb162 0.60MB Generic XYZ sounding format
EX1106_EXApril09_2011-267_0124_20110924_112420_EX1106_MB.txt.mb162 3.26MB Generic XYZ sounding format
EX1106_EXApril09_2011-267_0125_20110924_121622_EX1106_MB.txt.mb162 1.05MB Generic XYZ sounding format
EX1106_EXApril09_2011-267_0126_20110924_123358_EX1106_MB.txt.mb162 1.63MB Generic XYZ sounding format
EX1106_EXApril09_2011-267_0127_20110924_130103_EX1106_MB.txt.mb162 2.60MB Generic XYZ sounding format
EX1106_EXApril09_2011-267_0128_20110924_133912_EX1106_MB.txt.mb162 19.71MB Generic XYZ sounding format
EX1106_EXApril09_2011-267_0129_20110924_180759_EX1106_MB.txt.mb162 7.31MB Generic XYZ sounding format
EX1106_EXApril09_2011-267_0130_20110924_185833_EX1106_MB.txt.mb162 8.33MB Generic XYZ sounding format
EX1106_EXApril09_2011-267_0131_20110924_193911_EX1106_MB.txt.mb162 3.13MB Generic XYZ sounding format
EX1106_EXApril09_2011-267_0132_20110924_195352_EX1106_MB.txt.mb162 42.77MB Generic XYZ sounding format
EX1106_EXApril09_2011-268_0133_20110925_015350_EX1106_MB.txt.mb162 4.49MB Generic XYZ sounding format
EX1106_EXApril09_2011-268_0134_20110925_024615_EX1106_MB.txt.mb162 16.99MB Generic XYZ sounding format
EX1106_EXApril09_2011-268_0135_20110925_061003_EX1106_MB.txt.mb162 1.31MB Generic XYZ sounding format
EX1106_EXApril09_2011-268_0136_20110925_062633_EX1106_MB.txt.mb162 16.05MB Generic XYZ sounding format
EX1106_EXApril09_2011-268_0137_20110925_094101_EX1106_MB.txt.mb162 1.44MB Generic XYZ sounding format
EX1106_EXApril09_2011-268_0138_20110925_100100_EX1106_MB.txt.mb162 14.52MB Generic XYZ sounding format
EX1106_EXApril09_2011-268_0139_20110925_131119_EX1106_MB.txt.mb162 1.56MB Generic XYZ sounding format
EX1106_EXApril09_2011-268_0140_20110925_133245_EX1106_MB.txt.mb162 12.77MB Generic XYZ sounding format
EX1106_EXApril09_2011-268_0141_20110925_162615_EX1106_MB.txt.mb162 4.71MB Generic XYZ sounding format
EX1106_EXApril09_2011-268_0142_20110925_172630_EX1106_MB.txt.mb162 2.30MB Generic XYZ sounding format
EX1106_EXApril09_2011-268_0143_20110925_175136_EX1106_MB.txt.mb162 3.13MB Generic XYZ sounding format
EX1106_EXApril09_2011-268_0144_20110925_181922_EX1106_MB.txt.mb162 2.02MB Generic XYZ sounding format
EX1106_EXApril09_2011-268_0145_20110925_183533_EX1106_MB.txt.mb162 4.65MB Generic XYZ sounding format
EX1106_EXApril09_2011-268_0146_20110925_191529_EX1106_MB.txt.mb162 1.02MB Generic XYZ sounding format
EX1106_EXApril09_2011-268_0148_20110925_202142_EX1106_MB.txt.mb162 2.79MB Generic XYZ sounding format
EX1106_EXApril09_2011-268_0149_20110925_205152_EX1106_MB.txt.mb162 0.79MB Generic XYZ sounding format
EX1106_EXApril09_2011-268_0150_20110925_210103_EX1106_MB.txt.mb162 8.96MB Generic XYZ sounding format
EX1106_EXApril09_2011-268_0151_20110925_222256_EX1106_MB.txt.mb162 1.06MB Generic XYZ sounding format
EX1106_EXApril09_2011-268_0152_20110925_223425_EX1106_MB.txt.mb162 22.61MB Generic XYZ sounding format
EX1106_EXApril09_2011-269_0153_20110926_023341_EX1106_MB.txt.mb162 0.82MB Generic XYZ sounding format
EX1106_EXApril09_2011-269_0154_20110926_023948_EX1106_MB.txt.mb162 5.24MB Generic XYZ sounding format
EX1106_EXApril09_2011-269_0155_20110926_034629_EX1106_MB.txt.mb162 140.5KB Generic XYZ sounding format
EX1106_EXApril09_2011-269_0156_20110926_034828_EX1106_MB.txt.mb162 12.71MB Generic XYZ sounding format
EX1106_EXApril09_2011-269_0157_20110926_064333_EX1106_MB.txt.mb162 1.86MB Generic XYZ sounding format
EX1106_EXApril09_2011-269_0158_20110926_070812_EX1106_MB.txt.mb162 9.38MB Generic XYZ sounding format
EX1106_EXApril09_2011-269_0159_20110926_092046_EX1106_MB.txt.mb162 357.6KB Generic XYZ sounding format
EX1106_EXApril09_2011-269_0160_20110926_092442_EX1106_MB.txt.mb162 10.06MB Generic XYZ sounding format
EX1106_EXApril09_2011-269_0161_20110926_104703_EX1106_MB.txt.mb162 285.3KB Generic XYZ sounding format
EX1106_EXApril09_2011-269_0162_20110926_104948_EX1106_MB.txt.mb162 4.35MB Generic XYZ sounding format
EX1106_EXApril09_2011-269_0163_20110926_113335_EX1106_MB.txt.mb162 1.72MB Generic XYZ sounding format
EX1106_EXApril09_2011-269_0164_20110926_114749_EX1106_MB.txt.mb162 7.12MB Generic XYZ sounding format
EX1106_EXApril09_2011-269_0165_20110926_124113_EX1106_MB.txt.mb162 1.61MB Generic XYZ sounding format
EX1106_EXApril09_2011-269_0166_20110926_125148_EX1106_MB.txt.mb162 10.82MB Generic XYZ sounding format
EX1106_EXApril09_2011-269_0167_20110926_135109_EX1106_MB.txt.mb162 2.13MB Generic XYZ sounding format
EX1106_EXApril09_2011-269_0168_20110926_140313_EX1106_MB.txt.mb162 4.91MB Generic XYZ sounding format
EX1106_EXApril09_2011-269_0169_20110926_142244_EX1106_MB.txt.mb162 7.90MB Generic XYZ sounding format
EX1106_EXApril09_2011-269_0170_20110926_144350_EX1106_MB.txt.mb162 9.42MB Generic XYZ sounding format
EX1106_EXApril09_2011-269_0171_20110926_151641_EX1106_MB.txt.mb162 24.55MB Generic XYZ sounding format
EX1106_EXApril09_2011-269_0172_20110926_160356_EX1106_MB.txt.mb162 20.84MB Generic XYZ sounding format
EX1106_EXApril09_2011-269_0173_20110926_170240_EX1106_MB.txt.mb162 6.12MB Generic XYZ sounding format
EX1106_EXApril09_2011-269_0174_20110926_173316_EX1106_MB.txt.mb162 2.80MB Generic XYZ sounding format
EX1106_EXApril09_2011-269_0175_20110926_175522_EX1106_MB.txt.mb162 12.41MB Generic XYZ sounding format
EX1106_EXApril09_2011-269_0176_20110926_183434_EX1106_MB.txt.mb162 5.56MB Generic XYZ sounding format
EX1106_EXApril09_2011-269_0177_20110926_190331_EX1106_MB.txt.mb162 5.86MB Generic XYZ sounding format
EX1106_EXApril09_2011-269_0178_20110926_194128_EX1106_MB.txt.mb162 17.34MB Generic XYZ sounding format
EX1106_EXApril09_2011-269_0179_20110926_205018_EX1106_MB.txt.mb162 47.00MB Generic XYZ sounding format
EX1106_EXApril09_2011-269_0180_20110926_233307_EX1106_MB.txt.mb162 96.36MB Generic XYZ sounding format
EX1106_EXApril09_2011-270_0181_20110927_053308_EX1106_MB.txt.mb162 53.53MB Generic XYZ sounding format
EX1106_EXApril09_2011-270_0182_20110927_093219_EX1106_MB.txt.mb162 48.80MB Generic XYZ sounding format
EX1106_EXApril09_2011-270_0183_20110927_132145_EX1106_MB.txt.mb162 11.82MB Generic XYZ sounding format
EX1106_EXApril09_2011-270_0184_20110927_135524_EX1106_MB.txt.mb162 3.30MB Generic XYZ sounding format
EX1106_EXApril09_2011-270_0185_20110927_140143_EX1106_MB.txt.mb162 13.76MB Generic XYZ sounding format
EX1106_EXApril09_2011-270_0186_20110927_144621_EX1106_MB.txt.mb162 42.93MB Generic XYZ sounding format
EX1106_EXApril09_2011-270_0187_20110927_203332_EX1106_MB.txt.mb162 1.54MB Generic XYZ sounding format
EX1106_EXApril09_2011-270_0188_20110927_205253_EX1106_MB.txt.mb162 3.86MB Generic XYZ sounding format
EX1106_EXApril09_2011-270_0189_20110927_213415_EX1106_MB.txt.mb162 1.55MB Generic XYZ sounding format
EX1106_EXApril09_2011-270_0190_20110927_214808_EX1106_MB.txt.mb162 5.14MB Generic XYZ sounding format
EX1106_EXApril09_2011-270_0191_20110927_223406_EX1106_MB.txt.mb162 1.50MB Generic XYZ sounding format
EX1106_EXApril09_2011-270_0192_20110927_224515_EX1106_MB.txt.mb162 15.96MB Generic XYZ sounding format
EX1106_EXApril09_2011-271_0193_20110928_001504_EX1106_MB.txt.mb162 285.18MB Generic XYZ sounding format
EX1106_EXApril09_2011-271_0194_20110928_061504_EX1106_MB.txt.mb162 294.88MB Generic XYZ sounding format
EX1106_EXApril09_2011-271_0195_20110928_102736_EX1106_MB.txt.mb162 137.58MB Generic XYZ sounding format

Products: 50

Files File Size Description
EX1106_MB_FNL_01_50m_WGS84.asc.gz 2.47MB ESRI Arc ASCII
EX1106_MB_FNL_01_50m_WGS84.kmz.gz 1.17MB Compressed Keyhole Markup Language file
EX1106_MB_FNL_01_50m_WGS84.sd.gz 3.33MB Fledermaus surface
EX1106_MB_FNL_01_50m_WGS84.tif.gz 1.18MB GeoTIFF survey image
EX1106_MB_FNL_01_50m_WGS84.txt.gz 9.40MB ASCII text product
EX1106_MB_FNL_02_50m_WGS84.asc.gz 2.22MB ESRI Arc ASCII
EX1106_MB_FNL_02_50m_WGS84.kmz.gz 0.96MB Compressed Keyhole Markup Language file
EX1106_MB_FNL_02_50m_WGS84.sd.gz 3.10MB Fledermaus surface
EX1106_MB_FNL_02_50m_WGS84.tif.gz 0.96MB GeoTIFF survey image
EX1106_MB_FNL_02_50m_WGS84.txt.gz 8.47MB ASCII text product
EX1106_MB_FNL_03_50m_WGS84.asc.gz 2.13MB ESRI Arc ASCII
EX1106_MB_FNL_03_50m_WGS84.kmz.gz 0.84MB Compressed Keyhole Markup Language file
EX1106_MB_FNL_03_50m_WGS84.sd.gz 3.05MB Fledermaus surface
EX1106_MB_FNL_03_50m_WGS84.tif.gz 0.84MB GeoTIFF survey image
EX1106_MB_FNL_03_50m_WGS84.txt.gz 9.24MB ASCII text product
EX1106_MB_FNL_04_50m_WGS84.asc.gz 1.30MB ESRI Arc ASCII
EX1106_MB_FNL_04_50m_WGS84.kmz.gz 0.63MB Compressed Keyhole Markup Language file
EX1106_MB_FNL_04_50m_WGS84.sd.gz 2.09MB Fledermaus surface
EX1106_MB_FNL_04_50m_WGS84.tif.gz 0.64MB GeoTIFF survey image
EX1106_MB_FNL_04_50m_WGS84.txt.gz 5.67MB ASCII text product
EX1106_MB_FNL_05_50m_WGS84.asc.gz 2.68MB ESRI Arc ASCII
EX1106_MB_FNL_05_50m_WGS84.kmz.gz 0.69MB Compressed Keyhole Markup Language file
EX1106_MB_FNL_05_50m_WGS84.sd.gz 3.83MB Fledermaus surface
EX1106_MB_FNL_05_50m_WGS84.tif.gz 0.69MB GeoTIFF survey image
EX1106_MB_FNL_05_50m_WGS84.txt.gz 10.09MB ASCII text product
EX1106_MB_FNL_06_50m_WGS84.asc.gz 4.35MB ESRI Arc ASCII
EX1106_MB_FNL_06_50m_WGS84.kmz.gz 2.21MB Compressed Keyhole Markup Language file
EX1106_MB_FNL_06_50m_WGS84.sd.gz 5.84MB Fledermaus surface
EX1106_MB_FNL_06_50m_WGS84.tif.gz 2.21MB GeoTIFF survey image
EX1106_MB_FNL_06_50m_WGS84.txt.gz 15.63MB ASCII text product
EX1106_MB_FNL_07_50m_WGS84.asc.gz 7.51MB ESRI Arc ASCII
EX1106_MB_FNL_07_50m_WGS84.kmz.gz 1.23MB Compressed Keyhole Markup Language file
EX1106_MB_FNL_07_50m_WGS84.sd.gz 10.87MB Fledermaus surface
EX1106_MB_FNL_07_50m_WGS84.tif.gz 1.23MB GeoTIFF survey image
EX1106_MB_FNL_07_50m_WGS84.txt.gz 27.34MB ASCII text product
EX1106_MB_FNL_KellerCanyon_25m_WGS84.asc.gz 6.56MB ESRI Arc ASCII
EX1106_MB_FNL_KellerCanyon_25m_WGS84.kmz.gz 24.44MB Compressed Keyhole Markup Language file
EX1106_MB_FNL_KellerCanyon_25m_WGS84.sd.gz 9.05MB Fledermaus surface
EX1106_MB_FNL_KellerCanyon_25m_WGS84.tif.gz 24.41MB GeoTIFF survey image
EX1106_MB_FNL_KellerCanyon_25m_WGS84.txt.gz 27.49MB ASCII text product
EX1106_MB_FNL_PamlicoCanyon_25m_WGS84.asc.gz 4.31MB ESRI Arc ASCII
EX1106_MB_FNL_PamlicoCanyon_25m_WGS84.kmz.gz 25.46MB Compressed Keyhole Markup Language file
EX1106_MB_FNL_PamlicoCanyon_25m_WGS84.sd.gz 5.78MB Fledermaus surface
EX1106_MB_FNL_PamlicoCanyon_25m_WGS84.tif.gz 25.42MB GeoTIFF survey image
EX1106_MB_FNL_PamlicoCanyon_25m_WGS84.txt.gz 16.84MB ASCII text product
EX1106_MB_FNL_SWilm_Balt_Canyons_25m_WGS84.asc.gz 11.23MB ESRI Arc ASCII
EX1106_MB_FNL_SWilm_Balt_Canyons_25m_WGS84.kmz.gz 13.74MB Compressed Keyhole Markup Language file
EX1106_MB_FNL_SWilm_Balt_Canyons_25m_WGS84.sd.gz 16.07MB Fledermaus surface
EX1106_MB_FNL_SWilm_Balt_Canyons_25m_WGS84.tif.gz 13.71MB GeoTIFF survey image
EX1106_MB_FNL_SWilm_Balt_Canyons_25m_WGS84.txt.gz 45.78MB ASCII text product

Metadata Files: 9

Files File Size Description
EX1106_Multibeam.xml NCEI created ISO metadata
EX1106_Cruise_Level.xml 3.1KB XML metadata file
Level_2_Data_EX1106_ArcViewGrids.xml 23.4KB XML metadata file
Level_2_Data_EX1106_Geotiff.xml 23.6KB XML metadata file
Level_2_Data_EX1106_GoogleEarth_KMZ.xml 23.6KB XML metadata file
Level_2_Data_EX1106_IVS_sd_File.xml 23.4KB XML metadata file
Level_2_Data_EX1106_XYZ_of_Survey_Area.xml 23.8KB XML metadata file
v1_file_metadata.tar.gz 32.1KB File level metadata
v2_file_metadata.tar.gz 36.0KB File level metadata

Ancillary Files: 2

Files File Size Description
svp.tar.gz 378.7KB Sound Speed Profiles (SSP or SVP)
xbt.tar.gz 1.27MB Expendable Bathythermograph (XBT) data

Water Column Sonar Data

Water Column Sonar Data Available: WCSD Map Viewer